Wind_Speed
30 32 29 27 31 36 37 38 38 38 40 40 40 41 39 37 37 38 37 38 35 32 31 27 26 30 27 24 25 26 27 27 24 22 20 20 20 19 20 19 19 20 20 20 18 17 18 18 17 17 17 18 19 20 21 21 19 17 17 17 18 18 19
31 32 31 29 31 33 35 36 33 33 39 43 42 41 41 42 43 41 36 35 34 31 29 24 21 25 25 23 23 24 26 28 27 23 20 20 20 20 20 18 19 22 22 21 21 20 19 18 17 17 17 17 17 17 17 17 15 15 15 16 17 18 18
31 30 33 35 34 33 34 34 33 33 39 44 46 46 44 44 45 42 35 34 35 31 27 25 22 23 25 26 25 25 26 27 27 25 23 21 21 21 20 17 19 22 22 22 23 21 20 19 17 17 17 17 16 15 15 13 13 13 13 14 14 15 16
32 33 38 40 38 34 32 34 36 36 35 38 43 47 48 46 45 43 39 40 39 33 28 26 25 26 27 26 25 27 29 30 29 27 24 21 20 20 18 17 18 20 21 21 22 22 21 20 18 18 18 16 14 13 13 11 10 10 9 10 11 12 12
32 38 42 41 37 35 33 34 39 40 37 35 37 43 47 47 47 46 43 45 43 35 30 28 27 28 26 23 24 28 30 31 30 28 25 22 21 20 17 16 15 16 17 19 21 23 23 22 21 21 20 17 14 12 11 10 9 8 7 8 8 9 9
34 37 39 37 35 34 34 34 34 39 42 39 37 41 44 45 48 48 45 46 45 37 29 24 23 24 25 23 23 25 27 28 27 25 24 23 24 23 20 16 15 15 15 17 21 25 25 24 24 23 22 19 15 12 10 9 9 7 6 7 7 7 7
38 33 31 35 35 32 33 34 31 34 43 46 43 42 42 42 45 45 45 47 47 40 28 20 21 24 25 26 26 26 29 30 28 26 26 23 23 25 23 18 19 19 18 18 23 27 29 28 26 25 24 21 16 13 11 10 9 7 6 6 7 7 6
39 32 26 30 35 33 34 37 33 32 41 48 46 41 38 40 43 43 45 49 51 46 32 21 22 27 27 27 29 30 31 33 31 29 30 28 24 24 22 22 24 24 21 21 22 26 30 30 27 26 24 22 18 15 12 11 10 9 8 8 7 7 6
42 39 34 32 34 36 36 38 35 32 37 44 46 40 34 36 39 40 43 48 49 46 36 28 24 27 31 31 30 28 29 33 33 30 30 31 29 27 25 25 27 27 25 24 21 23 29 30 28 25 24 23 20 17 14 12 11 11 11 10 9 8 7
48 47 46 43 38 37 38 40 38 34 34 41 47 45 39 37 35 32 38 44 45 42 36 34 31 28 30 31 28 26 29 34 32 25 24 27 30 30 27 27 29 29 28 27 23 23 28 30 29 26 25 24 22 19 17 15 14 14 13 12 10 10 10
50 47 47 43 36 35 40 42 40 36 31 33 45 52 49 45 38 31 32 36 39 39 34 31 35 33 30 31 30 27 29 30 26 21 21 25 29 30 28 27 29 29 29 29 26 25 26 28 29 27 27 26 24 21 19 17 16 16 15 14 12 12 12
48 46 45 40 34 33 40 43 41 39 33 29 39 49 49 48 45 40 36 32 29 31 28 24 29 34 33 33 34 31 30 30 26 22 23 26 29 31 29 28 30 30 31 30 29 28 28 28 29 29 29 28 26 23 21 19 19 18 18 16 14 13 13
47 46 44 42 38 33 39 46 44 42 39 34 35 39 41 48 53 50 45 36 28 30 31 26 25 30 32 32 33 34 33 33 30 26 26 28 31 31 31 32 33 33 33 33 33 33 33 31 31 30 30 29 27 24 22 21 21 20 19 18 16 14 14
46 47 46 46 44 36 33 38 39 37 38 38 36 34 35 41 50 52 50 44 35 32 35 34 29 27 30 34 36 34 31 30 30 30 30 29 29 29 31 35 37 37 37 38 38 36 35 34 33 32 30 28 27 25 23 23 23 22 21 20 18 16 14
42 45 48 49 49 44 35 32 33 31 32 34 34 32 32 35 40 43 47 49 46 39 37 36 34 29 29 35 38 35 32 30 30 31 33 33 32 32 35 39 41 41 42 41 38 36 35 35 33 32 32 31 28 25 24 24 25 24 24 22 20 18 15
34 36 42 47 50 49 45 40 37 31 28 30 32 30 28 31 34 34 37 45 50 48 44 42 38 35 33 32 32 34 36 37 37 36 35 37 39 39 41 43 43 43 43 41 39 37 36 36 36 34 33 32 30 28 25 25 26 26 26 24 22 20 18
40 36 36 38 40 48 54 50 43 36 29 28 31 31 27 25 27 30 33 38 40 41 44 48 47 44 42 37 33 35 38 39 42 43 41 41 42 42 44 46 47 46 45 44 44 43 40 39 40 38 36 34 33 31 29 28 28 29 28 26 24 22 21
47 43 40 35 34 46 59 55 44 39 35 30 31 32 29 27 26 26 29 33 34 32 35 43 49 51 49 44 41 40 38 36 38 42 44 46 46 46 48 50 49 47 48 48 46 43 42 41 42 41 39 37 37 36 34 32 32 31 30 28 27 25 23
53 47 44 43 41 43 48 50 46 43 40 38 37 35 32 30 27 25 26 28 31 35 37 40 44 48 50 50 48 46 43 40 38 39 43 46 47 48 49 50 48 47 48 48 44 41 40 40 40 40 40 40 40 39 37 35 34 33 32 30 30 28 25
59 53 50 50 48 41 37 44 50 48 44 44 42 37 36 35 30 28 30 30 29 33 38 42 44 45 47 51 53 54 52 50 46 42 42 44 46 46 46 45 44 43 44 44 43 42 41 39 37 37 40 42 42 41 40 38 36 35 34 33 32 30 27
62 58 55 52 49 43 39 41 46 48 50 51 46 40 41 42 39 36 36 34 31 32 34 38 42 43 45 47 49 53 57 58 55 51 49 48 47 45 43 42 41 40 41 43 43 42 43 42 38 36 39 43 43 42 42 40 39 38 36 35 34 32 29
62 59 58 56 52 48 45 41 40 43 48 53 52 48 47 46 45 44 42 38 35 35 36 38 39 39 41 42 43 47 52 55 57 58 59 58 53 48 46 46 46 43 41 43 48 47 44 43 40 36 38 42 44 44 43 41 41 41 39 37 36 34 31
55 56 58 60 57 52 48 45 42 41 43 48 50 51 52 52 50 49 47 45 43 42 42 44 41 37 38 40 41 44 47 49 53 56 59 60 58 55 52 52 53 51 47 49 55 56 49 45 43 41 40 42 44 46 44 43 44 44 42 39 37 35 32
46 46 50 56 57 55 51 49 48 47 46 46 45 44 48 53 54 53 52 49 48 48 47 47 45 42 42 42 41 41 41 42 44 49 54 57 60 60 60 60 59 56 55 57 62 62 56 51 51 51 49 47 48 49 47 45 47 47 45 42 39 37 34
41 40 43 47 50 54 53 50 49 50 49 46 44 45 46 47 50 53 54 51 50 50 50 49 47 46 47 47 44 41 38 37 38 41 45 48 50 51 55 62 66 64 62 62 65 65 62 59 59 59 56 52 51 52 50 47 48 49 47 44 41 39 36
42 43 45 46 46 49 51 48 46 48 48 45 44 48 49 47 46 47 49 49 49 50 51 51 50 50 50 50 48 44 39 39 40 40 40 41 42 41 40 46 58 67 67 64 65 65 64 64 64 61 56 52 52 54 52 49 49 50 48 46 44 40 37
46 46 48 48 46 46 47 46 45 46 49 48 47 49 49 48 46 45 44 44 46 48 50 51 51 53 52 51 50 47 43 41 41 41 41 41 42 43 39 36 43 57 65 66 67 67 67 68 67 63 58 54 52 53 53 52 51 51 50 48 46 43 39
50 49 49 47 44 43 42 43 44 45 48 51 52 51 49 48 45 43 41 41 41 44 47 47 50 54 56 54 53 51 48 47 47 47 48 48 47 47 45 41 39 45 53 58 61 64 65 65 64 61 58 53 50 51 55 55 54 52 51 50 48 45 41
53 52 50 46 43 40 40 42 45 47 48 50 51 50 47 47 45 42 40 39 39 41 43 44 46 50 53 55 54 53 51 50 51 53 54 55 54 52 50 48 46 46 48 51 53 56 56 54 54 55 54 49 48 52 55 56 56 53 51 51 50 46 42
54 53 50 47 43 42 43 44 45 47 49 51 52 49 46 46 45 44 43 41 40 40 41 43 43 44 47 50 50 50 50 50 52 55 58 59 58 56 54 52 51 51 52 52 54 55 53 49 50 51 49 47 49 52 52 53 55 54 51 50 49 46 42
57 54 51 50 47 46 47 47 47 47 49 50 50 47 44 44 44 44 44 44 43 42 41 42 43 42 43 45 46 47 48 49 50 53 56 59 60 59 57 54 52 53 55 55 55 55 54 55 54 51 48 48 48 49 52 54 54 53 51 47 46 46 44
61 57 52 51 52 52 51 50 49 49 48 45 42 40 41 42 43 43 43 43 43 43 43 43 44 44 43 43 44 45 46 47 48 50 52 55 56 56 56 54 51 51 53 53 52 51 52 57 57 52 51 53 50 46 51 55 54 51 49 46 45 46 46
61 61 55 49 50 55 55 53 52 51 49 43 38 36 38 41 42 42 42 42 41 42 42 43 43 44 44 44 45 45 46 46 47 48 49 50 49 50 53 54 52 51 52 52 51 50 51 56 58 53 52 56 54 47 45 50 53 50 46 44 45 46 46
57 62 61 54 52 55 55 53 52 51 49 46 42 38 37 39 41 41 42 42 42 41 42 42 42 42 42 43 44 45 46 46 47 47 47 46 44 45 49 51 51 52 54 55 54 52 51 56 60 58 53 54 55 49 42 43 48 46 42 41 43 44 45
53 57 56 54 56 59 58 54 51 50 48 46 44 41 39 38 39 40 41 41 41 40 40 40 40 39 39 41 43 43 44 45 46 46 45 44 43 44 46 50 53 54 55 56 57 55 53 55 60 60 55 51 50 46 40 38 39 38 38 40 42 43 44
50 52 50 47 51 56 57 55 53 52 53 51 47 45 42 40 39 39 39 39 40 39 38 37 37 37 39 40 41 40 40 41 41 40 40 41 43 43 43 44 48 54 55 54 54 54 52 52 54 53 50 49 47 41 36 35 34 35 40 43 43 42 42
50 50 48 46 48 50 50 51 52 53 55 56 51 47 45 44 42 40 39 38 39 39 38 38 38 38 39 40 39 38 37 37 36 35 37 40 41 42 39 34 33 40 47 48 50 52 49 45 45 43 41 43 44 39 35 36 36 39 44 44 42 41 41
Wind_Direction
240 244 244 236 232 234 237 235 233 232 229 222 221 227 225 216 220 228 227 229 237 248 255 257 256 252 254 264 265 257 251 249 248 243 235 235 237 237 237 235 230 229 229 231 230 229 233 235 236 236 237 237 235 235 238 240 242 245 247 249 250 252 254
237 242 246 239 235 236 235 238 244 237 226 221 220 224 225 219 221 226 226 225 229 239 252 260 261 258 257 262 270 271 261 251 248 242 235 237 235 232 235 231 226 227 228 231 231 228 228 230 230 233 236 238 237 236 236 237 238 239 241 244 248 251 254
235 234 242 241 235 234 234 236 241 235 226 223 220 220 223 221 223 226 225 226 226 227 241 259 262 257 258 261 267 275 273 267 261 247 237 238 236 233 236 230 222 225 229 232 233 228 226 228 231 233 235 237 236 234 232 230 229 232 238 243 248 252 255
239 232 235 239 236 234 230 227 230 232 231 229 225 224 225 223 223 226 227 230 231 223 221 236 246 245 250 259 269 278 279 281 279 261 241 234 230 228 228 223 220 227 234 235 235 233 230 229 231 234 236 235 232 230 228 224 222 227 235 240 245 250 253
239 240 237 236 237 237 232 225 226 228 226 225 226 229 230 228 227 228 228 231 234 229 218 221 235 246 256 267 275 276 276 281 282 267 242 224 218 215 211 212 221 231 241 243 239 238 239 239 240 242 243 240 231 227 225 221 219 220 228 237 242 249 255
231 242 246 244 239 239 238 231 229 232 228 219 216 224 230 233 233 231 230 233 234 229 224 227 236 246 259 269 271 269 268 273 277 265 246 226 214 208 203 212 230 232 238 249 248 245 247 252 253 250 249 246 236 227 223 220 218 215 225 240 247 255 262
227 232 247 256 249 241 239 235 228 230 230 222 218 223 227 231 234 233 231 233 233 228 222 224 226 235 251 259 262 265 266 268 270 266 261 249 228 215 211 223 243 242 238 247 252 250 251 254 255 252 250 249 241 231 225 222 219 215 226 246 259 265 271
227 223 229 252 256 247 238 234 225 218 225 228 227 227 226 228 233 233 231 233 235 229 217 207 214 228 242 251 255 261 266 267 266 264 264 258 241 229 226 232 244 246 240 243 250 251 249 250 253 252 251 248 242 237 233 228 223 223 233 248 262 273 279
221 214 211 222 240 244 240 236 229 218 218 224 225 222 222 229 235 235 234 237 242 237 219 201 210 229 236 241 248 254 259 263 264 263 261 250 235 229 228 231 239 244 243 245 249 247 243 244 248 249 248 245 241 239 238 234 229 229 237 246 255 271 282
223 216 214 216 223 235 243 244 238 228 219 217 219 218 219 226 234 237 236 237 242 245 230 208 208 227 238 240 243 248 255 261 261 256 246 234 225 224 227 232 238 241 245 247 247 240 236 238 243 247 245 240 237 237 237 235 233 234 239 244 251 263 274
231 226 223 221 221 229 242 249 246 237 227 220 218 217 221 228 228 229 235 236 236 242 244 229 215 218 229 236 239 244 251 258 258 244 226 219 221 222 222 230 239 242 247 250 246 239 236 238 242 245 243 238 233 233 233 232 234 237 241 244 248 255 265
230 231 225 216 214 224 236 244 247 244 239 234 222 220 226 229 223 223 231 233 231 231 233 236 226 219 222 230 235 239 246 254 256 245 232 226 225 224 222 230 240 244 246 248 250 249 249 247 244 242 242 240 235 231 229 230 233 237 241 243 243 249 258
224 227 226 214 206 214 228 233 241 245 246 244 234 229 232 226 222 230 233 226 223 221 213 212 219 222 224 232 240 244 249 254 252 242 236 233 230 228 228 234 240 243 242 244 250 254 258 257 249 243 242 241 239 237 231 230 233 236 240 242 241 243 250
226 220 222 217 207 206 220 232 240 246 247 247 242 236 234 227 225 231 230 221 218 220 216 209 206 213 222 228 235 239 241 246 243 233 230 233 231 227 227 232 237 239 239 241 245 250 255 256 250 244 244 243 243 243 238 236 237 238 241 243 242 240 242
232 223 219 217 212 206 207 221 235 240 242 248 250 242 233 230 228 229 229 225 221 219 221 217 207 205 214 220 226 230 230 232 231 227 227 230 231 228 226 228 233 236 236 236 239 243 249 253 250 245 247 248 248 248 249 249 247 242 242 243 240 239 238
224 225 222 219 216 209 203 206 216 223 230 239 248 251 240 228 225 227 231 233 229 225 226 226 216 206 206 213 222 229 231 227 221 221 226 228 229 232 232 232 236 240 240 239 241 243 245 249 250 248 249 251 254 257 260 260 254 248 247 244 240 240 238
209 211 220 223 220 215 212 210 206 205 213 223 234 246 247 236 226 225 232 238 238 234 231 231 227 217 209 208 215 226 233 232 224 222 224 225 227 232 236 237 239 241 242 244 247 246 242 243 249 251 251 253 258 262 264 262 257 252 252 249 244 241 239
206 202 206 211 217 220 220 216 206 203 205 209 221 230 235 243 249 247 245 243 240 236 231 230 231 229 221 213 213 220 229 231 227 224 223 224 227 231 235 238 239 239 241 246 248 246 241 242 247 251 253 255 258 260 260 261 259 256 254 251 248 245 243
209 204 200 201 207 218 223 215 209 210 205 202 214 219 216 229 246 251 253 247 234 226 225 226 229 231 229 223 218 219 223 226 226 224 223 224 227 232 236 238 237 236 239 244 247 248 247 247 248 251 254 256 258 258 259 260 258 256 254 252 250 249 246
212 207 202 202 203 208 217 214 210 212 206 204 212 212 206 212 220 228 242 249 240 230 227 229 230 231 232 230 225 221 222 224 224 222 223 224 227 233 237 239 239 238 240 243 244 246 248 248 250 252 253 255 257 258 259 259 256 253 252 251 250 249 247
212 206 203 207 206 203 209 214 212 213 212 210 211 208 206 209 209 215 231 240 241 240 237 235 235 236 238 238 232 226 223 225 225 225 227 227 227 230 234 238 241 242 244 245 244 243 245 245 246 249 250 251 255 257 257 257 254 251 251 250 249 249 247
213 208 205 208 208 206 209 212 212 214 214 215 215 211 210 210 209 213 222 228 232 235 238 239 239 239 240 241 238 232 228 228 229 230 233 233 228 227 231 234 236 237 238 241 243 244 244 242 241 242 243 246 251 254 255 255 252 249 248 247 246 246 247
215 213 211 211 212 212 212 211 211 213 215 217 218 216 213 211 210 213 216 220 223 226 232 238 239 238 237 237 236 233 230 230 232 233 236 236 232 228 229 232 235 234 233 237 244 247 246 241 236 235 239 246 251 253 253 252 250 248 246 244 244 244 246
215 215 217 218 220 222 221 217 216 218 219 220 222 222 220 218 216 218 220 221 222 224 227 233 236 237 238 238 237 234 230 230 232 233 235 236 236 232 230 230 232 233 233 239 248 253 251 246 241 242 247 252 252 250 250 249 248 247 244 241 240 241 243
212 213 216 219 221 225 226 224 223 223 225 226 228 230 232 229 226 226 228 228 226 225 225 229 232 236 239 241 241 241 238 235 235 236 238 241 244 241 235 232 232 232 234 239 246 252 254 251 248 249 251 250 245 243 245 246 245 245 243 239 238 238 240
210 210 214 217 218 222 224 224 225 226 226 227 228 230 234 235 232 231 231 231 230 229 227 228 230 233 237 240 241 242 243 241 241 243 245 246 250 252 248 241 235 232 232 235 240 246 251 251 251 252 252 248 242 238 239 240 241 241 240 238 237 237 238
208 209 214 217 220 224 224 222 224 226 225 226 228 230 231 232 234 234 233 231 232 233 231 230 233 236 237 238 238 238 237 238 241 244 244 242 244 249 252 252 243 232 229 231 234 238 243 248 251 251 248 244 238 233 232 234 236 237 238 238 237 237 237
207 209 214 218 221 225 225 222 223 226 227 227 230 231 230 231 232 233 232 231 232 232 231 230 232 235 237 238 238 237 236 235 237 241 243 240 242 245 247 251 249 238 231 233 236 236 237 241 244 243 239 238 235 228 226 229 232 234 236 237 237 237 236
208 210 214 218 219 220 222 222 223 225 227 227 229 231 232 232 233 232 231 231 233 231 230 230 232 234 236 237 237 237 238 238 236 238 241 242 244 247 248 248 248 244 240 240 241 240 238 240 244 241 235 232 232 228 226 227 229 231 234 236 237 238 236
213 213 216 218 216 217 221 222 222 225 226 227 228 230 231 231 232 233 231 231 232 232 231 232 235 236 236 236 236 238 241 242 240 239 241 243 244 246 248 248 247 248 248 247 245 244 242 241 246 247 238 232 233 231 228 227 227 227 231 236 237 236 235
217 217 220 223 220 218 221 223 223 225 226 228 229 230 231 232 233 234 234 234 235 235 234 233 235 236 237 237 238 241 244 245 245 243 242 243 244 245 248 248 246 247 250 251 250 250 246 239 241 246 242 236 236 235 230 227 225 225 228 232 234 234 234
218 217 220 225 223 221 223 225 225 226 228 229 232 234 234 234 234 234 235 235 236 235 235 236 237 238 240 241 243 246 248 249 250 249 247 247 248 248 248 249 247 246 248 248 250 254 250 241 240 245 241 234 235 239 233 226 222 221 222 226 231 232 234
218 216 219 226 226 224 226 227 225 226 228 229 230 231 231 233 234 234 233 234 235 236 236 239 240 242 243 245 246 248 250 252 253 253 252 253 254 252 250 249 248 246 244 243 246 250 250 245 242 244 241 234 233 240 238 225 217 214 215 221 228 232 235
218 217 221 230 232 227 225 226 226 227 229 228 226 226 229 233 234 234 233 234 236 237 238 240 243 244 245 246 247 248 249 251 253 255 256 258 258 255 252 251 250 248 244 242 243 245 248 248 243 241 241 237 234 239 238 225 214 209 209 218 227 231 234
215 216 221 232 236 231 227 227 228 232 233 230 226 225 229 234 235 234 234 235 236 238 240 242 244 245 246 246 248 251 252 253 255 257 258 259 258 257 256 256 254 252 249 246 244 244 247 248 245 243 243 242 239 239 234 218 206 201 206 217 226 230 233
214 216 220 229 235 233 230 230 233 237 238 236 232 230 232 235 235 234 234 236 238 240 242 245 247 248 248 249 251 256 258 258 257 258 258 259 260 260 261 261 258 255 252 248 243 242 246 249 251 250 245 239 236 232 219 204 198 201 209 218 226 230 235
215 217 221 228 233 232 229 230 233 236 237 237 237 237 236 236 235 236 238 240 242 243 245 248 250 250 251 253 256 260 262 259 257 257 258 260 260 258 258 267 270 260 251 246 243 243 247 253 253 246 233 223 221 217 206 199 202 208 215 222 228 233 237
Height
5829 5830 5833 5837 5836 5837 5839 5841 5842 5845 5850 5853 5854 5855 5859 5862 5862 5861 5863 5865 5867 5868 5869 5872 5874 5875 5877 5877 5876 5877 5878 5878 5879 5881 5884 5886 5887 5889 5890 5892 5893 5894 5895 5896 5897 5898 5899 5900 5901 5902 5903 5903 5903 5904 5904 5906 5907 5908 5908 5909 5910 5910 5911
5826 5827 5829 5832 5832 5833 5835 5836 5839 5844 5847 5848 5850 5852 5855 5856 5855 5856 5860 5862 5864 5866 5866 5868 5871 5871 5873 5874 5874 5876 5876 5877 5878 5880 5883 5884 5885 5886 5887 5889 5890 5890 5892 5893 5894 5896 5897 5898 5899 5899 5900 5901 5901 5902 5902 5903 5904 5905 5905 5906 5907 5908 5909
5822 5825 5824 5825 5827 5829 5831 5834 5838 5840 5841 5842 5845 5846 5848 5851 5851 5852 5856 5858 5860 5863 5864 5866 5868 5868 5870 5871 5872 5873 5874 5875 5876 5879 5881 5882 5883 5884 5885 5886 5887 5888 5890 5891 5893 5894 5895 5895 5896 5897 5898 5899 5900 5900 5900 5901 5901 5902 5903 5904 5904 5905 5906
5817 5819 5818 5817 5821 5825 5829 5833 5834 5835 5837 5839 5841 5842 5843 5846 5848 5849 5852 5853 5854 5859 5862 5864 5865 5866 5868 5870 5871 5871 5871 5871 5873 5876 5879 5881 5881 5882 5883 5885 5886 5888 5889 5890 5891 5892 5892 5893 5894 5895 5896 5897 5898 5898 5898 5899 5900 5900 5901 5902 5902 5903 5904
5810 5810 5810 5814 5819 5822 5825 5828 5828 5828 5831 5834 5837 5839 5839 5842 5844 5846 5847 5848 5850 5856 5860 5862 5863 5864 5866 5868 5868 5869 5869 5869 5870 5872 5876 5879 5880 5881 5882 5883 5885 5887 5887 5889 5890 5890 5891 5891 5892 5893 5893 5894 5895 5896 5897 5897 5898 5898 5899 5900 5900 5901 5902
5803 5804 5806 5811 5816 5819 5820 5823 5825 5825 5826 5828 5831 5833 5834 5837 5839 5841 5843 5844 5847 5853 5858 5861 5862 5862 5863 5865 5866 5866 5867 5868 5869 5868 5871 5876 5878 5879 5880 5882 5883 5885 5886 5887 5888 5888 5889 5890 5891 5891 5892 5892 5893 5894 5895 5895 5895 5896 5897 5897 5898 5899 5900
5801 5803 5805 5806 5809 5814 5816 5817 5821 5823 5822 5822 5824 5826 5830 5833 5834 5837 5840 5839 5842 5849 5855 5859 5861 5861 5861 5861 5862 5863 5864 5866 5867 5866 5867 5870 5874 5876 5878 5879 5880 5882 5883 5885 5885 5886 5887 5889 5889 5890 5890 5890 5891 5892 5893 5893 5894 5894 5895 5895 5896 5897 5898
5799 5802 5804 5803 5804 5807 5809 5810 5814 5818 5818 5819 5821 5824 5828 5830 5831 5833 5835 5834 5836 5844 5853 5856 5858 5858 5858 5858 5858 5859 5860 5861 5863 5864 5863 5864 5868 5871 5873 5875 5877 5878 5880 5881 5882 5883 5885 5886 5887 5888 5888 5888 5889 5889 5890 5891 5892 5892 5892 5893 5894 5895 5896
5793 5795 5796 5798 5798 5799 5802 5805 5809 5813 5816 5818 5821 5823 5826 5827 5828 5831 5832 5830 5832 5840 5850 5854 5854 5854 5855 5855 5856 5857 5857 5857 5859 5861 5860 5860 5864 5866 5869 5871 5873 5875 5876 5877 5879 5881 5882 5883 5885 5886 5887 5887 5887 5888 5888 5889 5889 5890 5890 5891 5892 5893 5894
5783 5786 5787 5790 5793 5794 5796 5800 5805 5809 5812 5815 5817 5819 5821 5821 5823 5827 5828 5828 5831 5836 5844 5850 5851 5851 5851 5851 5853 5854 5854 5854 5856 5857 5856 5857 5861 5863 5866 5868 5869 5871 5872 5874 5876 5878 5880 5881 5882 5884 5885 5885 5885 5886 5886 5887 5887 5887 5888 5889 5890 5891 5892
5778 5783 5787 5790 5793 5793 5793 5795 5800 5804 5807 5811 5813 5814 5814 5815 5819 5822 5823 5826 5830 5833 5838 5844 5847 5848 5849 5850 5851 5852 5851 5852 5854 5854 5854 5855 5858 5860 5863 5865 5866 5867 5869 5870 5872 5875 5877 5879 5880 5881 5882 5882 5883 5883 5884 5885 5885 5885 5886 5887 5888 5889 5889
5774 5780 5786 5791 5792 5791 5792 5792 5795 5799 5803 5806 5808 5808 5809 5813 5815 5817 5819 5824 5827 5830 5835 5839 5842 5846 5848 5849 5850 5851 5850 5850 5851 5852 5852 5853 5855 5857 5859 5861 5862 5864 5865 5867 5868 5870 5873 5875 5877 5878 5879 5880 5880 5881 5881 5882 5882 5883 5883 5884 5886 5886 5887
5769 5774 5779 5785 5788 5788 5790 5790 5792 5794 5797 5800 5802 5803 5806 5811 5811 5812 5817 5821 5823 5827 5832 5835 5838 5842 5845 5847 5848 5849 5849 5848 5848 5849 5849 5850 5852 5853 5856 5858 5859 5861 5863 5864 5865 5866 5869 5870 5872 5874 5876 5877 5878 5878 5879 5879 5880 5880 5881 5882 5883 5884 5884
5762 5767 5771 5778 5781 5783 5786 5788 5789 5791 5792 5794 5797 5800 5803 5806 5807 5810 5815 5818 5819 5822 5827 5832 5836 5838 5840 5842 5843 5845 5846 5846 5846 5846 5846 5847 5849 5851 5853 5855 5857 5859 5861 5862 5863 5864 5865 5866 5868 5870 5872 5874 5876 5876 5876 5877 5877 5878 5878 5879 5880 5881 5882
5756 5760 5765 5770 5774 5777 5780 5783 5785 5787 5789 5790 5793 5796 5800 5802 5803 5807 5812 5813 5815 5818 5822 5827 5832 5833 5835 5837 5838 5839 5842 5843 5844 5844 5844 5846 5847 5849 5851 5852 5853 5855 5856 5858 5859 5861 5862 5863 5865 5867 5868 5869 5871 5873 5874 5874 5874 5875 5875 5876 5877 5878 5879
5751 5756 5760 5763 5768 5772 5774 5774 5777 5782 5787 5789 5789 5792 5795 5798 5800 5803 5806 5807 5809 5813 5817 5821 5826 5829 5830 5832 5834 5835 5836 5838 5840 5841 5842 5843 5844 5846 5847 5848 5850 5851 5852 5854 5856 5857 5859 5860 5861 5862 5863 5865 5866 5868 5870 5871 5871 5871 5872 5873 5874 5874 5876
5746 5751 5755 5760 5765 5767 5764 5766 5771 5776 5782 5787 5788 5790 5792 5794 5797 5800 5802 5803 5805 5809 5813 5815 5819 5823 5825 5828 5830 5831 5831 5833 5836 5838 5839 5840 5841 5842 5843 5843 5845 5848 5849 5851 5852 5852 5854 5855 5856 5857 5859 5861 5862 5864 5866 5867 5867 5867 5868 5870 5871 5871 5872
5741 5745 5750 5755 5758 5755 5754 5762 5771 5773 5776 5781 5785 5788 5790 5792 5794 5797 5799 5801 5802 5805 5807 5808 5811 5815 5820 5823 5826 5828 5828 5829 5831 5834 5835 5836 5838 5838 5839 5839 5841 5843 5845 5845 5846 5848 5849 5850 5851 5853 5855 5856 5858 5859 5861 5863 5863 5864 5865 5866 5867 5868 5868
5735 5741 5745 5747 5748 5747 5751 5762 5770 5771 5772 5776 5778 5783 5788 5790 5790 5792 5794 5794 5796 5798 5799 5801 5804 5808 5813 5818 5820 5823 5825 5826 5827 5829 5831 5832 5833 5834 5834 5835 5837 5839 5840 5841 5842 5844 5845 5846 5848 5849 5850 5852 5853 5855 5856 5858 5859 5860 5861 5862 5863 5864 5865
5729 5735 5738 5738 5740 5744 5749 5757 5763 5766 5769 5771 5773 5779 5782 5783 5784 5786 5787 5787 5789 5792 5794 5795 5798 5800 5804 5808 5812 5816 5820 5821 5822 5823 5825 5827 5828 5829 5829 5830 5832 5834 5835 5836 5838 5839 5841 5842 5844 5845 5846 5848 5849 5850 5851 5853 5855 5856 5856 5857 5858 5860 5861
5721 5728 5732 5734 5737 5741 5745 5751 5756 5759 5762 5764 5769 5774 5775 5775 5777 5779 5780 5781 5784 5787 5790 5792 5794 5796 5797 5801 5804 5808 5812 5815 5816 5817 5818 5820 5822 5824 5826 5826 5827 5828 5829 5830 5832 5834 5836 5837 5840 5842 5842 5843 5844 5845 5846 5848 5850 5851 5852 5853 5854 5856 5857
5717 5724 5727 5729 5733 5736 5740 5746 5749 5752 5755 5758 5763 5767 5768 5769 5772 5773 5774 5776 5779 5782 5785 5787 5790 5793 5795 5797 5799 5802 5805 5807 5808 5809 5810 5813 5817 5820 5821 5821 5822 5822 5823 5823 5825 5828 5831 5833 5835 5837 5837 5838 5840 5840 5841 5843 5845 5846 5847 5849 5850 5852 5853
5714 5719 5722 5723 5726 5730 5735 5741 5744 5746 5749 5752 5757 5760 5761 5763 5766 5767 5769 5772 5775 5777 5780 5781 5784 5788 5789 5790 5792 5795 5797 5800 5801 5802 5803 5806 5810 5814 5815 5815 5816 5816 5816 5816 5817 5820 5826 5830 5831 5831 5832 5834 5834 5835 5837 5838 5839 5841 5842 5844 5846 5848 5849
5708 5713 5716 5718 5722 5725 5730 5735 5738 5740 5743 5747 5751 5753 5754 5758 5761 5762 5765 5768 5770 5773 5775 5777 5779 5782 5782 5783 5785 5787 5789 5792 5793 5794 5795 5796 5799 5803 5805 5807 5809 5809 5810 5810 5810 5812 5818 5823 5825 5825 5827 5829 5829 5830 5832 5833 5833 5835 5838 5840 5842 5844 5846
5702 5706 5710 5713 5717 5720 5725 5729 5733 5736 5741 5745 5747 5747 5749 5754 5757 5758 5761 5765 5767 5769 5772 5774 5776 5777 5777 5779 5782 5784 5785 5786 5787 5787 5787 5789 5790 5793 5795 5798 5800 5801 5803 5804 5804 5805 5809 5814 5816 5817 5820 5823 5823 5824 5825 5827 5828 5830 5832 5835 5837 5839 5841
5696 5700 5704 5707 5711 5715 5719 5724 5728 5732 5736 5739 5741 5741 5744 5748 5751 5754 5758 5761 5764 5766 5769 5770 5771 5772 5773 5776 5779 5781 5783 5783 5783 5783 5783 5784 5784 5785 5788 5791 5792 5794 5797 5798 5799 5800 5802 5804 5805 5808 5811 5814 5815 5817 5818 5821 5823 5824 5826 5829 5832 5835 5837
5691 5696 5698 5702 5708 5712 5715 5719 5723 5726 5729 5732 5734 5737 5739 5743 5746 5750 5754 5758 5760 5762 5764 5766 5767 5768 5769 5771 5774 5777 5779 5779 5780 5781 5780 5779 5779 5780 5783 5785 5787 5789 5791 5791 5792 5793 5795 5795 5796 5799 5802 5804 5805 5808 5811 5814 5816 5818 5820 5823 5827 5830 5832
5686 5690 5694 5700 5708 5711 5712 5716 5719 5721 5724 5727 5729 5732 5735 5739 5742 5746 5750 5754 5755 5757 5759 5762 5763 5763 5764 5766 5768 5771 5773 5775 5777 5777 5775 5774 5775 5777 5778 5781 5782 5783 5783 5784 5784 5786 5787 5786 5787 5788 5790 5793 5797 5799 5802 5805 5808 5810 5813 5816 5820 5823 5826
5681 5686 5691 5698 5705 5707 5708 5711 5712 5714 5718 5721 5724 5729 5733 5736 5740 5743 5746 5748 5750 5751 5754 5756 5757 5758 5759 5760 5763 5765 5767 5769 5771 5771 5769 5769 5770 5772 5773 5774 5776 5777 5777 5777 5778 5779 5780 5781 5782 5782 5782 5783 5787 5789 5792 5795 5799 5803 5806 5809 5813 5817 5821
5679 5685 5690 5695 5699 5701 5702 5703 5706 5709 5713 5715 5719 5724 5729 5733 5736 5738 5741 5743 5744 5745 5748 5749 5751 5752 5753 5755 5757 5760 5761 5763 5764 5764 5764 5763 5764 5765 5766 5768 5770 5771 5771 5771 5771 5772 5774 5775 5777 5777 5776 5775 5778 5781 5784 5787 5792 5796 5800 5803 5807 5811 5814
5678 5685 5690 5692 5695 5695 5695 5698 5703 5706 5708 5710 5715 5721 5725 5729 5731 5734 5736 5738 5739 5741 5743 5744 5746 5747 5748 5750 5752 5754 5755 5756 5756 5757 5757 5758 5758 5759 5760 5762 5764 5764 5764 5765 5766 5767 5768 5767 5766 5767 5767 5768 5771 5775 5777 5780 5785 5790 5794 5797 5800 5804 5807
5676 5683 5686 5687 5687 5689 5691 5696 5701 5703 5705 5710 5716 5720 5722 5725 5727 5729 5731 5733 5735 5737 5738 5740 5742 5743 5744 5746 5747 5748 5749 5749 5749 5750 5751 5751 5752 5754 5756 5757 5759 5759 5759 5760 5761 5762 5762 5762 5760 5760 5760 5761 5763 5767 5769 5771 5775 5780 5785 5789 5793 5797 5800
5674 5678 5681 5680 5680 5683 5687 5691 5695 5698 5702 5709 5714 5716 5718 5720 5721 5724 5726 5728 5730 5732 5734 5735 5737 5739 5740 5741 5742 5743 5743 5743 5743 5743 5744 5745 5747 5749 5751 5752 5753 5754 5753 5753 5753 5753 5754 5754 5755 5754 5754 5754 5756 5759 5762 5763 5765 5770 5775 5782 5787 5791 5794
5670 5673 5676 5676 5676 5678 5682 5685 5689 5693 5698 5704 5709 5711 5713 5715 5717 5719 5722 5723 5725 5727 5729 5730 5732 5733 5735 5736 5736 5736 5737 5737 5737 5737 5739 5741 5741 5743 5745 5746 5746 5747 5747 5746 5746 5746 5745 5746 5746 5746 5747 5748 5750 5753 5757 5758 5759 5763 5769 5776 5782 5786 5789
5666 5670 5673 5674 5673 5674 5677 5682 5686 5690 5694 5699 5704 5707 5709 5711 5713 5715 5717 5719 5721 5723 5724 5726 5727 5728 5729 5730 5730 5731 5732 5732 5732 5733 5734 5735 5735 5737 5739 5739 5739 5740 5741 5741 5740 5740 5739 5737 5737 5738 5742 5745 5747 5750 5753 5754 5755 5758 5764 5771 5776 5779 5783
5662 5665 5669 5671 5670 5672 5676 5681 5684 5687 5689 5694 5699 5703 5706 5707 5709 5711 5713 5714 5716 5718 5720 5721 5722 5723 5724 5725 5725 5726 5726 5727 5727 5729 5730 5730 5730 5732 5733 5732 5732 5733 5733 5732 5732 5733 5732 5731 5731 5734 5737 5740 5743 5746 5748 5748 5750 5754 5759 5765 5770 5774 5778
5658 5661 5665 5667 5668 5671 5674 5678 5680 5682 5684 5688 5693 5698 5701 5703 5705 5707 5709 5711 5712 5714 5715 5717 5718 5718 5719 5719 5720 5721 5721 5722 5723 5725 5725 5725 5726 5727 5727 5725 5725 5725 5724 5724 5725 5728 5728 5728 5727 5726 5727 5730 5736 5740 5743 5744 5747 5752 5757 5762 5767 5771 5774